This is the latest recevied weather packets stored in our database for station/object IZ1OSY-3. If no packets are shown the sender has not sent any weather packets the latest 10 day(s).
| Time | Temp. | Humidity | Pressure | Rain* | Wind** | Luminosity | Snow |
|---|---|---|---|---|---|---|---|
| 1777458529 | 14.44° C | 99% | 1017.4 hPa | - | - | - | - |
| 1777457624 | 13.89° C | 99% | 1017.5 hPa | - | - | - | - |
| 1777457328 | 13.89° C | 99% | 1017.5 hPa | - | - | - | - |
| 1777456423 | 13.33° C | 99% | 1017.6 hPa | - | - | - | - |
| 1777456127 | 13.33° C | 99% | 1017.5 hPa | - | - | - | - |
| 1777455222 | 13.33° C | 99% | 1017.6 hPa | - | - | - | - |
| 1777454926 | 13.33° C | 99% | 1017.6 hPa | - | - | - | - |
| 1777454021 | 13.33° C | 99% | 1017.6 hPa | - | - | - | - |
| 1777453725 | 12.78° C | 99% | 1017.6 hPa | - | - | - | - |
| 1777452821 | 13.33° C | 99% | 1017.5 hPa | - | - | - | - |
| 1777452524 | 12.78° C | 99% | 1017.4 hPa | - | - | - | - |
| 1777451620 | 12.78° C | 99% | 1017.4 hPa | - | - | - | - |
| 1777451324 | 12.78° C | 99% | 1017.5 hPa | - | - | - | - |
| 1777450419 | 12.22° C | 99% | 1017.3 hPa | - | - | - | - |
| 1777450123 | 12.22° C | 99% | 1017.2 hPa | - | - | - | - |
| 1777449218 | 12.22° C | 99% | 1017 hPa | - | - | - | - |
| 1777448922 | 12.78° C | 99% | 1016.9 hPa | - | - | - | - |
| 1777448017 | 12.22° C | 99% | 1016.9 hPa | - | - | - | - |
| 1777447721 | 12.22° C | 99% | 1016.9 hPa | - | - | - | - |
| 1777446817 | 11.67° C | 98% | 1016.9 hPa | - | - | - | - |
| 1777446520 | 11.67° C | 96% | 1016.8 hPa | - | - | - | - |
| 1777445616 | 11.11° C | 94% | 1016.7 hPa | - | - | - | - |
| 1777445319 | 11.11° C | 96% | 1016.6 hPa | - | - | - | - |
| 1777444415 | 10.56° C | 89% | 1016.7 hPa | - | - | - | - |
| 1777443214 | 10.56° C | 85% | 1016.4 hPa | - | - | - | - |
* Rain since midnight (hover to see other rain measurements)
** Current wind speed in m/s (hover to see current wind gust speed)